Temperature
-12 -12 -11 -11 -11 -11 -10 -10 -10 -9 -7 -6 -5 -5 -5 -4 -3 -2 -1 1 2 3 5 6 7 8 10 11 12 12 13 13 13 13 14 14 14 14
-11 -11 -11 -11 -11 -11 -10 -10 -9 -9 -8 -7 -6 -6 -5 -5 -4 -3 -2 -0 2 3 4 5 7 8 9 10 11 12 12 12 13 13 13 13 13 14
-11 -11 -11 -11 -10 -10 -10 -9 -9 -9 -8 -7 -6 -6 -6 -5 -4 -3 -2 -1 1 2 3 4 6 7 8 9 10 11 12 12 12 13 13 13 13 13
-11 -11 -10 -10 -10 -10 -9 -9 -9 -8 -8 -8 -7 -6 -6 -5 -5 -3 -2 -1 0 2 2 4 5 6 7 9 10 10 11 12 12 12 12 12 13 13
-11 -10 -10 -10 -10 -9 -9 -9 -9 -8 -8 -8 -7 -7 -6 -6 -5 -4 -3 -2 -0 1 2 3 4 6 7 8 9 10 11 11 12 12 12 12 12 12
-10 -10 -10 -10 -10 -9 -9 -9 -9 -8 -8 -8 -8 -7 -7 -6 -6 -4 -3 -2 -1 0 2 3 4 5 6 7 8 9 10 11 11 12 12 12 12 12
-11 -11 -10 -10 -10 -10 -9 -9 -9 -9 -9 -8 -8 -8 -8 -7 -7 -6 -4 -2 -1 -0 1 2 4 5 6 7 8 9 9 10 11 11 12 12 12 12
-11 -11 -11 -10 -10 -10 -10 -10 -10 -10 -10 -9 -9 -9 -9 -8 -8 -7 -6 -4 -2 -1 0 2 3 4 5 6 7 8 9 10 10 11 12 12 12 12
-11 -11 -11 -11 -11 -11 -10 -10 -10 -10 -10 -10 -10 -9 -9 -9 -8 -7 -6 -5 -4 -2 -1 1 2 4 5 6 6 7 8 9 10 11 11 11 12 12
-11 -12 -12 -11 -11 -11 -11 -11 -11 -10 -10 -10 -10 -10 -9 -9 -8 -8 -7 -5 -4 -2 -2 -0 2 3 4 5 6 7 8 9 9 10 11 11 11 11
-11 -12 -12 -12 -12 -11 -11 -11 -11 -11 -10 -10 -10 -10 -9 -9 -8 -7 -7 -6 -5 -3 -2 -1 1 2 4 5 6 6 7 8 9 10 10 10 11 11
-11 -12 -12 -12 -12 -12 -12 -12 -12 -11 -11 -10 -10 -9 -9 -9 -8 -8 -7 -6 -6 -4 -3 -1 0 1 3 4 5 6 7 8 8 9 10 10 10 10
-11 -12 -12 -12 -13 -13 -13 -12 -12 -12 -11 -11 -11 -10 -9 -9 -8 -8 -7 -7 -6 -5 -3 -2 -0 1 2 3 4 5 6 7 8 8 9 10 10 10
-11 -12 -12 -13 -13 -13 -13 -13 -13 -12 -12 -12 -11 -11 -10 -9 -9 -8 -7 -6 -5 -4 -3 -3 -1 0 1 2 4 5 6 6 7 8 8 9 9 9
-11 -12 -12 -12 -13 -13 -13 -13 -13 -13 -12 -12 -12 -12 -11 -10 -9 -8 -7 -6 -5 -4 -3 -3 -2 -0 0 2 3 4 5 5 6 7 7 8 9 9
-11 -11 -12 -12 -13 -13 -13 -13 -13 -13 -13 -13 -13 -12 -11 -10 -9 -9 -8 -7 -6 -5 -4 -3 -2 -1 0 1 2 3 4 5 5 6 7 7 8 8
-11 -11 -12 -12 -13 -13 -13 -13 -13 -13 -13 -13 -13 -12 -12 -11 -10 -9 -8 -7 -6 -5 -4 -3 -2 -1 -0 1 2 3 4 4 5 5 6 6 6 7
-11 -12 -12 -12 -13 -13 -13 -13 -14 -14 -13 -13 -13 -13 -12 -11 -11 -10 -9 -8 -7 -6 -5 -4 -3 -2 -1 -0 1 2 3 4 4 5 5 5 5 6
-11 -12 -12 -12 -13 -13 -13 -13 -14 -14 -13 -13 -13 -13 -12 -12 -11 -10 -10 -9 -8 -7 -5 -4 -3 -2 -1 -1 -1 0 2 3 3 4 4 5 4 4
-11 -11 -12 -12 -13 -13 -13 -13 -13 -14 -13 -13 -13 -13 -13 -12 -12 -11 -10 -9 -8 -7 -6 -5 -4 -3 -2 -2 -1 -1 0 1 2 3 3 3 3 3
-11 -11 -12 -12 -12 -13 -13 -13 -13 -13 -13 -13 -13 -13 -13 -13 -12 -12 -11 -10 -9 -8 -7 -6 -5 -4 -3 -2 -2 -2 -1 -0 1 2 2 2 2 1
-11 -11 -11 -12 -12 -12 -12 -13 -13 -13 -13 -13 -13 -13 -13 -13 -13 -12 -11 -11 -10 -9 -8 -7 -6 -5 -4 -3 -3 -3 -3 -2 -1 -0 1 1 1 0
-11 -11 -11 -11 -12 -12 -12 -12 -13 -13 -13 -13 -13 -13 -13 -13 -13 -12 -12 -11 -10 -10 -9 -8 -7 -6 -5 -5 -4 -4 -4 -3 -2 -2 -1 -1 0 1
Wind_Speed
14 15 13 12 12 12 12 12 12 13 14 13 10 9 10 11 14 14 14 16 18 17 16 14 12 11 10 8 9 12 17 21 24 24 25 26 27 29
12 14 13 12 11 11 11 11 11 12 13 12 12 12 12 11 14 14 14 17 17 15 14 13 12 10 9 9 9 11 14 18 22 24 26 26 25 24
12 12 12 13 10 10 10 10 10 10 12 13 12 12 13 13 12 12 12 11 10 13 13 13 12 10 9 8 9 11 14 18 22 24 25 25 24 24
13 12 11 10 11 9 9 9 9 10 10 13 12 11 12 12 13 12 11 9 8 12 13 12 11 10 8 8 8 10 12 16 19 21 23 24 25 23
13 13 12 11 11 9 9 8 8 8 8 10 10 9 9 10 12 11 11 9 9 9 10 10 10 8 8 7 7 7 10 14 18 20 22 23 24 25
13 13 12 12 12 11 9 8 8 8 8 8 8 8 8 10 9 9 10 9 9 7 7 7 7 7 7 6 6 5 8 11 16 20 22 23 23 23
13 13 13 15 16 12 11 11 10 8 8 8 7 8 8 9 9 9 10 10 8 4 6 5 4 4 4 4 4 4 6 9 12 17 20 22 23 23
13 13 13 14 16 17 17 16 14 11 10 9 7 9 10 10 10 10 9 8 5 6 7 6 4 3 2 2 1 3 5 8 10 13 17 20 23 23
12 12 12 13 16 13 14 14 13 14 13 10 9 10 11 11 12 11 10 9 8 8 7 5 3 3 1 0 0 2 4 6 8 10 14 17 21 23
11 12 12 13 14 15 13 12 11 11 12 9 9 10 10 11 10 10 11 11 10 6 4 3 4 3 1 1 0 2 4 6 8 9 12 15 18 21
9 10 12 12 18 19 14 13 12 11 12 13 13 11 12 12 11 8 8 8 5 3 3 3 4 3 2 1 1 1 4 6 7 9 11 13 16 18
8 9 12 14 17 18 13 13 13 14 13 12 11 11 10 9 10 7 7 6 5 4 4 5 3 3 1 1 1 0 2 4 6 8 10 13 15 12
7 7 8 15 16 16 14 12 14 14 11 11 10 9 9 8 8 7 6 6 6 4 5 6 4 3 2 1 1 2 1 2 3 4 7 12 14 12
6 7 8 14 14 14 12 15 16 14 9 9 9 9 10 10 9 10 9 7 8 10 10 7 4 4 3 1 1 2 3 2 3 4 4 8 9 11
6 8 11 12 12 10 12 14 13 9 9 9 10 10 10 11 10 9 9 8 7 7 8 8 7 5 4 2 1 1 2 3 4 5 5 5 5 7
6 7 10 10 9 9 9 9 8 8 9 9 10 10 10 10 9 9 9 8 6 4 4 5 5 4 3 3 1 1 2 2 3 7 8 7 6 7
5 5 6 6 6 7 6 7 7 8 8 9 9 10 10 10 10 9 8 7 5 5 5 4 3 1 3 4 1 3 4 5 5 7 9 9 8 8
6 5 6 6 7 7 7 7 7 7 8 8 9 9 10 10 10 9 8 7 6 6 5 4 3 1 1 5 11 3 4 5 5 6 9 11 9 8
6 6 6 6 6 6 6 6 6 7 7 8 8 9 9 10 9 9 9 8 7 6 5 4 3 2 2 2 6 12 4 6 7 8 9 10 11 9
7 7 6 6 6 6 6 5 5 6 6 7 8 8 9 9 9 9 9 9 7 7 6 6 5 4 3 3 3 7 12 6 8 11 12 13 13 18
9 8 7 6 6 5 5 5 5 5 6 6 7 8 8 8 9 9 9 11 8 7 7 6 6 6 3 4 7 7 10 17 13 9 13 15 14 11
9 9 7 7 6 5 5 4 4 4 4 5 6 6 7 8 8 9 9 8 7 7 6 5 5 5 4 8 10 10 11 13 19 24 20 11 7 8
10 9 8 7 6 5 4 4 4 3 3 4 4 5 6 7 7 8 8 8 7 7 6 6 6 7 8 9 11 12 15 14 13 15 16 23 29 32
Wind_Direction
290 285 281 277 276 274 274 276 282 293 300 304 307 309 315 312 312 310 305 306 310 310 311 312 305 295 283 269 242 217 206 198 191 190 193 198 204 208
295 288 285 283 278 276 274 273 272 277 285 293 301 305 310 310 310 307 302 304 301 303 306 309 306 300 287 268 241 214 201 191 186 187 194 198 201 203
312 303 296 292 286 280 277 276 276 277 282 291 297 303 310 314 313 310 305 302 297 298 301 302 304 300 289 274 242 213 197 189 184 186 192 197 200 202
329 323 315 308 297 288 284 282 282 281 283 292 300 309 314 318 317 314 310 304 299 298 297 294 292 286 285 280 248 215 196 189 181 184 190 196 200 201
339 337 333 328 324 312 302 301 295 292 289 292 300 311 317 326 324 321 318 315 308 301 297 287 285 281 278 279 247 215 199 190 185 185 188 194 197 197
345 345 346 344 342 342 339 334 327 317 312 307 310 318 324 331 332 334 329 326 316 309 306 294 286 278 266 268 248 216 199 194 190 188 188 187 188 190
348 349 351 356 360 359 360 358 352 344 338 332 328 329 336 341 340 334 328 323 312 333 322 297 283 257 238 246 245 212 193 192 191 189 187 184 180 180
350 350 351 356 359 2 2 3 3 358 351 343 337 336 336 336 333 330 329 330 320 346 336 304 284 262 237 229 230 199 193 187 187 188 185 183 180 179
349 349 351 352 356 354 353 355 357 357 355 344 335 332 329 332 328 325 325 318 300 311 321 302 298 273 247 231 102 197 192 184 182 182 183 183 181 180
347 347 348 348 351 354 350 349 349 351 346 341 331 325 324 325 323 316 309 305 292 280 284 293 312 302 319 296 358 213 192 183 180 179 181 182 182 181
340 342 344 345 348 353 349 346 344 345 343 338 332 327 326 329 335 329 325 325 315 319 345 312 312 314 317 314 323 193 177 177 178 178 179 178 178 178
331 335 340 346 348 351 349 345 344 342 338 336 334 334 333 333 339 335 323 317 311 307 348 336 315 319 329 347 342 35 156 154 165 174 178 175 171 173
322 329 334 342 345 348 349 346 342 339 334 333 333 337 339 339 337 332 318 300 292 285 328 341 321 322 318 338 11 16 73 127 144 155 164 168 171 169
310 318 327 336 339 342 346 346 345 342 338 338 340 343 342 339 334 326 315 296 272 269 285 300 294 312 328 332 66 37 42 62 105 124 135 142 147 145
302 306 318 329 332 333 341 345 346 345 344 343 343 340 336 332 329 328 324 313 287 269 272 271 266 277 293 298 351 71 68 43 72 102 102 108 123 134
299 302 309 315 320 325 333 340 344 346 345 341 338 336 336 337 339 339 336 335 328 321 303 295 282 274 278 286 271 118 86 92 85 95 92 81 75 89
313 303 310 319 325 331 334 338 342 344 346 344 342 341 342 343 343 343 341 341 344 343 344 346 348 43 54 27 72 89 106 104 105 107 103 93 73 76
327 313 318 322 324 327 330 334 339 344 344 343 344 344 344 344 344 346 348 350 352 350 352 351 349 354 63 46 25 62 93 100 96 102 115 110 93 76
331 319 318 319 320 320 322 325 330 337 338 340 344 346 345 346 348 350 353 354 355 354 357 357 1 16 106 80 18 17 65 106 105 100 103 108 106 99
335 324 316 314 314 315 316 317 322 330 337 339 344 346 347 349 352 354 357 358 356 359 7 13 17 28 61 92 69 30 32 73 113 112 108 102 98 97
333 326 318 313 309 308 308 307 311 320 332 335 341 346 348 351 354 355 357 0 6 10 15 16 17 33 68 90 92 69 54 55 71 104 120 119 114 109
329 324 319 313 309 302 299 295 298 308 323 330 339 345 348 352 355 356 359 2 9 14 21 28 27 41 70 100 103 96 85 75 66 64 60 71 121 133
325 323 318 312 308 300 292 281 281 294 312 325 335 343 349 354 357 0 3 8 14 22 33 47 60 71 83 96 102 100 94 89 84 78 70 79 92 102
Height
1430 1426 1422 1419 1416 1414 1411 1409 1406 1400 1394 1391 1389 1386 1384 1381 1378 1377 1376 1376 1377 1379 1381 1384 1389 1393 1397 1402 1408 1413 1419 1426 1433 1443 1452 1460 1469 1477
1426 1421 1418 1414 1411 1409 1406 1404 1402 1399 1393 1388 1386 1383 1380 1377 1375 1374 1373 1372 1373 1375 1376 1379 1383 1388 1392 1397 1402 1408 1413 1419 1426 1435 1444 1453 1462 1470
1423 1418 1414 1410 1407 1404 1402 1400 1398 1395 1391 1386 1383 1380 1377 1374 1372 1370 1369 1368 1369 1370 1372 1374 1378 1383 1387 1392 1398 1403 1408 1414 1420 1429 1437 1447 1456 1464
1421 1416 1412 1408 1404 1402 1399 1396 1394 1391 1388 1384 1380 1377 1374 1372 1369 1366 1365 1365 1365 1366 1368 1371 1374 1378 1382 1387 1392 1398 1403 1409 1415 1423 1431 1440 1449 1457
1422 1416 1411 1407 1403 1400 1397 1394 1391 1388 1385 1382 1378 1375 1372 1369 1366 1364 1363 1362 1362 1363 1364 1367 1369 1373 1377 1382 1388 1393 1399 1405 1411 1418 1426 1434 1442 1450
1423 1418 1413 1408 1404 1400 1396 1393 1390 1387 1384 1380 1377 1374 1371 1368 1365 1362 1360 1359 1359 1360 1361 1363 1366 1370 1373 1378 1384 1389 1394 1401 1407 1413 1421 1429 1437 1444
1424 1419 1414 1410 1406 1401 1398 1393 1390 1386 1383 1380 1376 1373 1370 1366 1364 1361 1359 1357 1357 1357 1358 1361 1363 1366 1368 1373 1379 1384 1390 1396 1402 1409 1416 1424 1431 1438
1424 1420 1415 1411 1406 1402 1398 1394 1390 1386 1383 1379 1376 1373 1369 1366 1363 1361 1358 1357 1356 1356 1356 1357 1360 1362 1365 1370 1375 1380 1386 1392 1398 1405 1411 1418 1425 1433
1425 1420 1416 1412 1407 1402 1398 1394 1390 1386 1383 1379 1375 1372 1369 1366 1363 1360 1358 1356 1354 1353 1354 1354 1356 1359 1362 1366 1371 1377 1383 1389 1395 1401 1407 1414 1421 1429
1426 1421 1416 1412 1408 1403 1398 1393 1389 1385 1381 1377 1374 1371 1368 1365 1362 1360 1357 1355 1353 1353 1353 1353 1355 1357 1359 1363 1368 1374 1380 1386 1391 1397 1403 1410 1418 1425
1425 1420 1416 1412 1408 1403 1397 1393 1388 1384 1380 1376 1372 1369 1366 1363 1361 1358 1356 1354 1352 1352 1353 1353 1354 1355 1358 1362 1367 1372 1377 1383 1388 1394 1400 1407 1414 1421
1424 1419 1415 1411 1407 1402 1397 1392 1387 1383 1378 1374 1371 1367 1364 1361 1359 1357 1355 1354 1352 1352 1352 1353 1354 1355 1358 1361 1365 1370 1375 1380 1385 1390 1397 1403 1410 1417
1422 1418 1414 1410 1405 1400 1396 1392 1387 1382 1377 1373 1370 1366 1363 1360 1357 1355 1354 1352 1352 1351 1352 1352 1353 1354 1356 1359 1363 1367 1372 1377 1382 1387 1394 1400 1407 1414
1420 1416 1412 1408 1403 1399 1395 1390 1386 1381 1377 1373 1369 1365 1362 1358 1356 1353 1352 1351 1350 1350 1351 1352 1352 1354 1356 1359 1361 1366 1370 1375 1380 1386 1392 1398 1404 1411
1418 1414 1410 1406 1401 1397 1393 1389 1384 1380 1377 1373 1369 1365 1361 1358 1355 1352 1350 1349 1348 1348 1349 1351 1352 1354 1356 1358 1360 1364 1369 1374 1379 1385 1390 1396 1402 1408
1416 1412 1408 1404 1400 1396 1392 1388 1384 1381 1377 1373 1369 1365 1361 1358 1354 1351 1349 1348 1347 1347 1348 1349 1350 1352 1355 1358 1360 1364 1368 1373 1378 1384 1389 1395 1401 1407
1414 1410 1407 1403 1400 1396 1392 1388 1385 1381 1377 1373 1369 1365 1361 1358 1354 1351 1349 1348 1347 1347 1348 1349 1351 1353 1356 1358 1360 1363 1367 1372 1377 1382 1388 1394 1400 1406
1413 1409 1406 1402 1399 1395 1392 1388 1385 1381 1378 1374 1370 1366 1362 1358 1355 1352 1350 1349 1348 1348 1348 1350 1351 1354 1357 1359 1361 1364 1367 1371 1377 1383 1389 1394 1400 1406
1412 1408 1405 1401 1398 1395 1391 1388 1385 1382 1378 1375 1371 1368 1364 1360 1357 1354 1352 1350 1349 1349 1349 1350 1352 1354 1356 1359 1362 1365 1368 1372 1377 1383 1389 1394 1400 1408
1411 1407 1403 1400 1397 1394 1391 1388 1385 1382 1379 1376 1373 1369 1366 1363 1359 1356 1354 1352 1351 1350 1350 1351 1353 1355 1358 1360 1363 1367 1370 1374 1378 1383 1388 1394 1401 1409
1410 1406 1402 1399 1396 1393 1390 1388 1385 1383 1380 1377 1374 1371 1368 1365 1362 1359 1357 1355 1353 1352 1352 1353 1354 1356 1359 1362 1365 1368 1372 1377 1380 1384 1389 1394 1401 1409
1409 1405 1401 1398 1395 1392 1390 1387 1385 1383 1381 1378 1376 1373 1370 1368 1365 1362 1359 1357 1356 1355 1355 1355 1357 1358 1360 1363 1366 1369 1374 1379 1383 1387 1392 1396 1400 1408
1408 1404 1400 1397 1394 1392 1389 1387 1385 1383 1381 1379 1377 1375 1373 1370 1368 1365 1363 1361 1360 1359 1358 1359 1360 1361 1363 1366 1368 1372 1376 1381 1386 1390 1396 1401 1405 1411